Wetbulb
66.10 66.52 66.64 66.19 65.79 65.89 66.11 66.73 66.96 66.55 66.56 66.25 66.34 66.36 65.96 66.09 66.31 66.03 65.83 65.12 64.91 64.80 64.45 64.41 63.68 63.02 62.19 62.02 62.47 62.69 65.16 65.10
66.00 66.77 66.47 66.53 66.68 64.89 65.14 65.67 66.09 65.89 65.69 64.92 64.48 64.30 64.28 63.66 63.53 64.44 64.33 64.05 63.75 63.33 62.87 62.39 61.71 61.38 61.21 60.60 60.10 61.17 63.59 64.08
66.34 66.17 66.04 65.22 64.83 65.03 65.30 65.69 65.72 65.72 65.56 64.30 63.94 66.23 64.76 63.88 63.11 63.31 63.15 62.61 62.17 61.74 61.15 60.34 58.86 58.44 59.01 58.62 58.74 61.92 61.89 62.15
66.01 66.49 66.20 65.31 63.49 65.00 66.07 65.93 67.28 67.42 67.31 66.41 66.32 65.46 64.90 63.25 62.29 61.78 61.39 61.19 60.58 60.08 59.52 58.61 58.41 60.92 61.54 59.36 62.01 61.84 61.89 61.76
65.98 66.43 66.71 65.99 65.18 65.42 65.68 66.14 66.48 66.60 66.36 66.33 66.15 65.70 65.52 64.80 64.06 63.49 62.96 60.09 60.98 60.42 60.88 61.57 60.65 60.89 60.88 60.69 60.58 60.55 61.49 62.02
67.01 66.82 66.43 66.49 66.27 65.92 65.38 65.36 65.94 66.08 66.22 65.49 65.79 64.78 64.33 63.50 62.82 62.69 62.54 62.14 60.91 61.42 61.77 60.67 60.10 59.61 58.86 58.38 58.29 59.81 60.26 59.64
66.99 66.51 65.75 64.96 63.26 64.64 65.06 65.22 65.69 66.03 65.57 65.37 64.86 64.02 63.31 62.24 61.89 61.78 61.57 61.42 60.57 60.91 60.20 58.33 56.70 55.75 56.41 55.75 55.62 56.10 57.73 55.91
65.19 63.60 63.12 62.36 61.98 63.41 64.41 64.68 64.99 64.86 64.94 64.59 64.18 63.45 62.91 61.98 61.58 61.19 61.00 60.79 60.83 60.72 58.94 56.07 55.00 54.33 54.11 53.28 53.43 54.43 56.10 54.86
62.06 61.84 62.40 62.06 60.77 60.46 60.55 61.37 60.56 62.29 62.80 62.83 62.57 62.18 61.89 61.26 61.10 60.97 61.11 61.14 60.61 59.27 56.55 55.68 54.08 52.75 52.44 52.44 52.48 53.01 54.26 53.20
60.26 60.19 61.11 61.25 60.41 60.27 59.83 59.03 58.44 58.23 58.21 58.76 59.36 59.64 60.13 60.40 59.89 60.01 60.74 60.25 59.62 58.36 56.81 54.61 52.48 51.73 51.69 51.74 51.65 51.95 51.98 51.66
59.03 59.97 59.97 59.88 58.84 58.95 59.18 58.66 58.35 58.11 57.27 56.81 57.48 58.05 58.70 58.89 58.59 58.62 58.82 58.04 58.07 57.68 56.37 53.99 52.32 51.37 50.66 51.26 51.48 51.02 51.55 50.46
58.49 58.36 58.12 57.69 56.79 56.12 55.48 55.10 55.37 55.09 55.22 55.15 55.52 56.12 57.06 57.41 57.54 57.31 56.97 55.82 55.74 55.55 54.93 53.79 52.13 51.39 49.39 49.30 51.25 51.26 51.04 51.16
56.58 55.70 55.31 55.29 54.26 53.09 53.37 53.02 53.31 53.74 54.00 53.73 53.88 54.17 54.76 55.54 55.64 56.12 56.10 54.94 54.86 54.63 53.64 52.50 50.96 50.69 48.98 49.37 49.77 50.60 50.58 50.57
52.37 51.17 51.01 50.90 51.62 52.01 51.97 51.59 52.18 51.77 52.55 53.36 53.67 53.26 53.37 53.24 54.19 54.12 54.57 53.69 54.40 53.86 52.41 51.20 50.43 50.96 48.38 48.18 45.27 47.78 48.40 49.34
50.02 50.37 50.88 51.60 51.52 51.99 52.38 52.44 52.76 52.26 52.58 52.34 52.94 53.01 52.68 52.47 52.61 52.78 53.18 53.31 52.18 53.73 53.14 51.25 50.32 50.25 49.83 48.04 44.84 43.21 46.76 47.76
51.82 51.96 52.22 51.79 52.20 51.51 50.39 49.17 48.19 49.91 50.23 50.83 51.14 51.95 51.69 51.46 51.10 51.31 51.92 52.38 51.62 51.61 51.91 50.82 49.82 48.38 47.75 47.46 47.17 45.53 43.49 42.85
51.34 51.73 51.56 51.31 51.11 49.92 49.25 48.74 49.03 49.27 49.27 48.83 49.49 50.34 50.66 49.71 49.05 49.27 49.84 50.51 50.40 49.52 49.63 48.35 48.32 48.09 46.05 45.28 43.99 43.81 43.99 40.87
51.44 51.18 51.12 51.58 51.34 49.41 48.56 48.00 47.67 47.68 47.97 47.66 48.04 48.00 48.11 46.74 46.86 46.97 46.74 46.04 45.70 46.00 45.79 45.09 44.56 44.29 44.23 43.17 42.46 40.32 39.97 39.81
50.72 50.67 50.20 50.60 50.27 48.05 47.77 47.72 47.87 47.15 47.16 46.85 46.21 45.61 45.84 44.41 45.14 45.45 45.45 45.78 45.74 45.56 43.91 42.18 40.76 39.42 38.54 38.23 37.78 36.82 37.15 36.78
50.37 49.73 49.47 50.00 49.62 48.34 47.20 48.27 47.43 46.71 46.19 45.58 44.30 43.76 43.88 45.01 45.30 45.62 45.72 46.11 45.95 44.15 41.76 40.84 39.62 38.68 37.63 37.82 37.46 37.74 38.23 37.98
MSLP
1019.43 1019.48 1019.73 1020.02 1019.72 1019.72 1019.89 1020.01 1020.13 1020.14 1020.24 1020.43 1020.47 1020.60 1020.59 1020.58 1020.60 1020.62 1020.63 1020.64 1020.60 1020.52 1020.53 1020.53 1020.54 1020.55 1020.59 1020.60 1020.50 1020.46 1020.08 1020.07
1019.37 1019.58 1019.64 1019.89 1019.85 1019.97 1020.00 1020.09 1020.20 1020.38 1020.43 1020.53 1020.48 1020.49 1020.57 1020.66 1020.78 1020.76 1020.76 1020.78 1020.81 1020.85 1020.80 1020.82 1020.85 1020.89 1020.83 1020.71 1020.63 1020.44 1020.03 1019.95
1019.39 1019.44 1019.75 1019.91 1019.96 1019.99 1020.16 1020.25 1020.42 1020.47 1020.46 1020.50 1020.41 1020.31 1020.42 1020.46 1020.71 1020.71 1020.75 1020.79 1020.82 1020.90 1020.93 1020.94 1021.01 1021.02 1020.92 1020.75 1020.49 1020.10 1020.01 1019.88
1019.20 1019.47 1019.69 1019.90 1019.90 1019.98 1020.14 1020.31 1020.30 1020.38 1020.48 1020.58 1020.57 1020.62 1020.65 1020.72 1020.84 1020.97 1021.02 1021.06 1021.06 1021.12 1021.09 1021.07 1020.92 1020.67 1020.55 1020.63 1020.31 1020.33 1020.05 1019.86
1019.30 1019.33 1019.53 1019.76 1019.92 1020.00 1020.07 1020.20 1020.21 1020.26 1020.40 1020.47 1020.51 1020.49 1020.53 1020.59 1020.73 1020.80 1020.87 1021.05 1020.94 1020.97 1020.88 1020.86 1020.87 1020.82 1020.64 1020.51 1020.39 1020.24 1020.02 1019.86
1019.01 1019.27 1019.64 1019.95 1019.99 1020.00 1020.07 1020.10 1020.22 1020.19 1020.26 1020.39 1020.40 1020.47 1020.60 1020.66 1020.64 1020.68 1020.77 1020.81 1020.83 1020.79 1020.74 1020.77 1020.69 1020.61 1020.54 1020.42 1020.25 1020.06 1019.82 1019.83
1018.91 1019.34 1019.70 1019.85 1019.97 1019.95 1020.06 1020.17 1020.11 1019.98 1020.06 1020.17 1020.28 1020.25 1020.26 1020.37 1020.41 1020.45 1020.39 1020.43 1020.40 1020.37 1020.40 1020.45 1020.49 1020.47 1020.46 1020.40 1020.23 1020.04 1019.90 1019.72
1018.93 1019.35 1019.70 1019.85 1019.78 1019.93 1019.92 1020.01 1019.94 1019.92 1019.91 1019.97 1020.24 1020.26 1020.23 1020.22 1020.19 1020.11 1020.06 1020.15 1020.14 1020.24 1020.23 1020.21 1020.27 1020.33 1020.21 1020.23 1020.10 1019.95 1019.81 1019.77
1018.69 1019.13 1019.49 1019.59 1019.72 1019.96 1020.02 1019.95 1020.05 1019.98 1019.99 1020.07 1020.06 1020.11 1020.04 1020.14 1020.06 1019.94 1019.79 1019.95 1020.13 1020.20 1020.27 1020.31 1020.21 1020.28 1020.17 1020.15 1020.06 1019.87 1019.63 1019.64
1018.66 1018.88 1019.05 1019.38 1019.76 1019.86 1019.86 1019.95 1020.11 1020.11 1020.15 1020.15 1020.07 1019.98 1020.00 1019.93 1019.78 1019.63 1019.63 1019.86 1019.90 1019.87 1019.85 1019.91 1019.89 1019.83 1019.75 1019.67 1019.68 1019.69 1019.55 1019.47
1018.42 1018.86 1019.15 1019.40 1019.64 1019.69 1019.83 1019.91 1019.85 1019.78 1019.88 1019.82 1019.88 1019.75 1019.63 1019.66 1019.42 1019.15 1019.31 1019.35 1019.45 1019.47 1019.43 1019.52 1019.17 1019.07 1019.10 1019.18 1019.14 1019.06 1019.10 1019.09
1018.42 1018.75 1019.07 1019.40 1019.55 1019.78 1019.84 1019.71 1019.64 1019.82 1019.67 1019.57 1019.59 1019.52 1019.44 1019.31 1018.93 1018.80 1018.93 1018.87 1018.76 1018.80 1018.80 1018.93 1018.88 1018.63 1018.57 1018.46 1018.51 1018.60 1018.66 1018.58
1018.40 1018.63 1019.20 1019.69 1019.84 1019.86 1019.84 1019.66 1019.65 1019.37 1019.27 1019.41 1019.41 1019.31 1019.12 1019.03 1018.62 1018.34 1018.41 1018.46 1018.18 1018.27 1018.39 1018.48 1018.28 1018.52 1018.68 1018.16 1017.97 1018.09 1018.18 1018.14
1019.32 1019.70 1020.01 1020.22 1020.31 1020.37 1020.36 1020.16 1019.69 1019.44 1019.27 1019.09 1018.95 1018.93 1018.66 1018.48 1018.25 1017.88 1017.66 1017.56 1017.50 1017.49 1017.84 1017.62 1017.67 1017.76 1017.42 1017.57 1017.09 1016.95 1017.32 1017.57
1019.99 1020.20 1020.36 1020.39 1020.43 1020.37 1020.28 1020.02 1019.66 1019.37 1019.11 1018.88 1018.58 1018.55 1018.37 1018.20 1017.81 1017.50 1017.30 1017.24 1016.92 1016.66 1016.78 1016.84 1016.49 1016.89 1017.16 1016.68 1016.40 1016.01 1016.43 1016.85
1020.43 1020.55 1020.52 1020.60 1020.63 1020.52 1020.48 1020.42 1020.20 1019.89 1019.70 1019.33 1018.92 1018.52 1018.17 1017.92 1017.64 1017.32 1016.99 1016.94 1016.69 1016.55 1016.40 1016.44 1016.51 1016.12 1017.13 1016.90 1016.60 1016.56 1016.30 1016.24
1020.82 1020.70 1020.76 1020.96 1020.95 1020.77 1020.48 1020.26 1020.29 1020.23 1019.93 1019.27 1018.71 1018.15 1017.93 1017.57 1017.13 1016.86 1016.60 1016.46 1016.42 1016.55 1016.44 1016.49 1016.42 1016.30 1016.47 1016.87 1016.76 1016.80 1017.02 1016.93
1020.72 1020.63 1020.74 1020.77 1020.60 1020.50 1020.37 1020.17 1019.83 1019.87 1019.44 1019.01 1018.45 1018.13 1017.89 1017.99 1017.43 1017.09 1016.85 1016.98 1017.13 1017.34 1017.53 1017.70 1017.78 1017.78 1017.45 1017.83 1017.67 1017.33 1017.33 1017.75
1020.75 1020.64 1020.47 1020.59 1020.45 1020.57 1020.53 1020.24 1020.25 1019.87 1019.58 1019.31 1018.93 1018.28 1017.92 1017.86 1017.97 1017.75 1017.44 1017.30 1017.41 1017.70 1018.17 1018.52 1018.84 1018.93 1018.99 1019.01 1019.09 1019.13 1018.87 1019.01
1020.90 1020.76 1020.59 1020.33 1020.27 1020.13 1020.60 1020.78 1020.51 1020.30 1019.67 1019.37 1018.87 1018.46 1018.40 1018.23 1017.94 1017.94 1018.00 1017.79 1017.59 1017.90 1018.29 1018.54 1019.08 1019.23 1019.32 1019.32 1019.46 1019.25 1019.30 1019.35
Wind_Speed
5 5 4 4 5 5 5 5 6 7 6 6 6 6 6 7 7 7 7 8 8 8 9 10 10 10 9 7 7 6 4 3
6 4 4 3 2 2 3 3 4 5 5 4 5 5 5 6 4 6 7 8 8 8 8 8 8 9 8 8 6 2 5 3
5 5 4 3 2 1 2 3 4 4 5 4 3 1 2 2 5 5 5 5 5 5 5 6 5 6 7 6 3 3 4 3
6 6 5 4 3 3 2 1 1 1 1 1 0 1 3 3 3 4 5 5 7 7 6 5 3 3 2 2 2 2 3 3
8 6 6 5 3 2 1 1 2 1 2 2 2 1 1 2 2 1 1 2 2 2 3 3 4 3 3 3 2 1 1 1
9 7 5 4 3 3 3 3 2 2 2 3 2 2 3 3 3 3 3 2 3 2 2 3 4 3 3 4 4 2 1 2
8 5 5 4 4 3 3 4 4 4 4 4 3 4 4 3 4 4 4 4 4 4 3 3 3 3 2 2 2 3 2 2
7 6 4 4 3 4 3 4 4 4 4 4 5 5 4 5 5 5 5 4 4 4 4 3 3 3 3 3 3 3 1 2
9 7 6 5 5 4 4 3 3 4 4 6 6 6 6 7 6 6 6 5 6 5 5 4 4 4 5 4 4 4 3 3
9 7 8 6 5 4 3 3 3 4 4 5 7 8 8 7 7 7 6 5 6 6 6 6 5 5 4 4 4 4 4 4
10 8 8 7 5 4 4 4 4 4 5 5 8 9 9 8 8 8 7 6 7 7 7 7 7 7 6 6 5 5 5 4
7 7 6 5 3 2 3 4 4 4 5 6 8 8 10 9 9 11 8 8 8 9 10 8 8 8 7 7 7 6 5 5
8 7 2 2 2 2 2 3 4 3 4 6 8 9 10 10 10 11 10 10 13 11 10 12 9 8 5 8 9 9 9 8
5 6 6 4 2 1 2 3 4 5 6 8 8 9 9 8 10 11 12 11 14 14 13 10 8 9 9 8 7 7 7 8
6 6 5 5 5 3 3 2 3 4 8 9 11 12 11 10 11 10 12 11 11 14 14 16 12 9 13 9 6 10 4 5
8 9 9 8 7 5 6 5 6 6 7 8 10 11 11 11 10 10 11 10 12 12 11 12 12 12 6 9 5 4 9 9
7 8 9 7 5 5 4 5 4 6 8 12 12 11 11 10 9 10 9 7 9 8 8 7 7 10 8 4 5 3 3 7
5 6 6 6 6 6 6 6 8 9 12 11 11 10 10 9 7 4 4 5 7 8 9 10 7 6 5 5 3 2 2 2
6 8 9 10 8 8 9 10 10 12 14 11 14 11 9 5 3 5 7 10 9 8 9 8 7 6 7 4 4 4 2 1
9 10 9 9 10 10 9 10 8 10 11 10 10 9 4 4 6 7 6 5 6 7 5 5 5 3 1 1 2 2 3 4
Wind_Direction
161 156 147 131 96 85 91 90 94 92 83 82 91 86 81 68 58 56 60 63 65 60 64 78 80 73 63 48 40 43 59 39
167 167 134 116 142 141 150 140 117 115 111 108 97 91 71 64 53 55 60 61 57 50 52 60 63 62 54 43 38 18 21 34
181 174 180 167 185 157 199 172 151 138 137 129 128 76 58 62 53 55 50 48 53 55 54 53 62 79 75 71 4 10 352 6
205 198 198 190 209 191 180 195 172 131 125 142 349 30 9 6 27 25 19 13 13 17 30 45 10 2 6 145 42 25 2 352
208 206 214 217 221 220 223 235 219 192 190 197 200 236 271 271 296 291 319 7 328 324 326 340 339 338 334 328 331 280 327 13
208 212 222 239 256 242 238 246 256 261 252 240 251 256 252 270 274 273 259 257 268 275 286 300 302 305 312 316 328 333 38 79
215 211 220 228 241 251 235 237 241 261 256 248 241 248 254 254 249 245 246 241 245 243 244 267 273 287 301 305 306 328 10 50
195 201 215 218 243 248 236 235 245 245 248 249 241 256 266 270 270 263 257 245 244 246 248 248 244 250 251 252 266 274 284 4
186 184 203 218 234 235 235 236 248 258 255 250 245 246 257 263 269 268 268 262 257 247 244 244 252 238 247 233 234 228 214 200
186 189 193 204 228 237 240 243 254 264 270 272 259 254 255 257 257 259 264 255 252 248 242 246 246 239 249 243 238 236 224 218
186 190 204 211 222 247 262 263 255 266 273 268 270 261 251 251 257 259 252 250 242 240 240 238 244 238 236 238 236 233 217 222
184 195 205 215 233 263 265 262 273 269 269 268 272 272 268 257 258 259 255 249 244 231 234 226 244 249 245 245 238 233 234 227
193 196 217 299 342 343 317 334 323 295 291 293 284 277 273 266 265 267 256 249 248 241 239 239 228 227 240 245 253 242 233 227
32 29 23 8 350 334 313 309 298 305 317 311 305 296 295 278 269 271 266 260 251 243 233 235 242 211 223 247 255 226 223 223
17 24 23 34 22 352 330 281 292 320 335 326 330 322 313 300 288 278 276 267 261 252 242 237 242 222 223 232 236 246 251 188
63 71 58 41 29 23 13 349 334 337 323 316 315 317 318 315 306 295 284 278 269 269 263 255 244 248 223 232 243 266 242 242
53 53 41 29 24 25 20 13 350 335 327 324 318 313 314 310 305 298 288 283 282 277 268 266 270 257 241 206 204 185 185 255
40 30 26 18 17 19 19 8 358 336 335 331 328 323 321 321 325 354 51 77 79 72 65 54 46 44 44 22 335 268 165 253
5 356 0 5 8 3 356 357 342 338 334 322 316 314 310 333 39 88 99 100 91 82 64 60 55 49 31 27 19 29 15 252
3 0 345 351 355 360 346 339 335 322 314 306 304 304 290 152 124 114 120 115 112 107 113 98 77 79 54 261 262 241 240 237